(308509) = 2005 UF19

Discovered at Catalina on 2005-10-22 by CSS.

Orbit

Orbit type: Main Belt

Note: WebGL enabled browser required.

epoch2024-03-31.0
epoch JD2460400.5
perihelion date2022-09-02.50028
perihelion JD2459825.00028
argument of perihelion (°)351.22089
ascending node (°)53.16593
inclination (°)12.18755
eccentricity0.0826872
perihelion distance (AU)2.8783882
Tisserand w.r.t. Jupiter3.2
ΔV w.r.t. Earth (km/sec)11.2
semimajor axis (AU)3.1378481
mean anomaly (°)102.04720
mean daily motion (°/day)0.17731930
aphelion distance (AU)3.397
period (years)5.56
P-vector [x]0.71188046
P-vector [y]0.65648658
P-vector [z]0.24950265
Q-vector [x]-0.68167122
Q-vector [y]0.56042028
Q-vector [z]0.47037588
absolute magnitude15.78
phase slope0.15
uncertainty0
referenceMPEC 2024-E179
observations used357
oppositions13
arc length (days)6717
first opposition used2005
last opposition used2024
residual rms (arc-secs)0.65
perturbers coarse indicatorM-v
perturbers precise indicator003Ek
first observation date used2005-10-22.0
last observation date used2024-03-13.0
computer nameMPCLINUX
JD of orbit computation2456819.501770
perihelion JD uncertainty (days)2.4250E-04
argument of perihelion uncertainty (°)4.4522E-05
ascending node uncertainty (°)2.5926E-05
inclination uncertainty (°)8.2551E-06
eccentricity uncertainty 7.1398E-08
perihelion distance uncertainty (AU)2.1957E-07
Minimum Orbit Intersection Distances (in AU)
for orbit epoch: 2460400.5, reference: E2024-GB3
Mercury2.55716
Venus2.15526
Earth1.88882
Mars1.38136
Jupiter1.98777
Saturn6.1282
Uranus15.196
Neptune26.9424

Observations

365 total observations over interval: 2005 10 22.35351 – 2024 03 13.236647
These data are available for download (format description).

Date (UT) J2000 RA J2000 Dec Magn Location Ref
2005 10 22.35351 01 58 40.04 +03 40 55.7 20.3 V 703 – Catalina Sky Survey MPS 147802
2005 10 22.36270 01 58 39.61 +03 40 54.8 19.7 V 703 – Catalina Sky Survey MPS 147802
2005 10 22.37190 01 58 39.18 +03 40 53.4 19.0 V 703 – Catalina Sky Survey MPS 147802
2005 10 22.38110 01 58 38.60 +03 40 52.2 19.1 V 703 – Catalina Sky Survey MPS 147802
2005 10 24.31605 01 56 56.57 +03 39 20.2 20.0 V 291 – LPL/Spacewatch II MPS 147802
2005 10 24.32329 01 56 56.17 +03 39 19.8 20.0 V 291 – LPL/Spacewatch II MPS 147802
2005 10 24.33046 01 56 55.79 +03 39 19.5 19.9 V 291 – LPL/Spacewatch II MPS 147802
2005 10 28.27249 01 53 28.35 +03 37 00.5 18.8 V 703 – Catalina Sky Survey MPS 147802
2005 10 28.27785 01 53 27.92 +03 36 59.0 19.7 V 703 – Catalina Sky Survey MPS 147802
2005 10 28.28322 01 53 27.63 +03 36 58.6 20.1 V 703 – Catalina Sky Survey MPS 147802
2005 10 28.28859 01 53 27.34 +03 36 58.9 19.2 V 703 – Catalina Sky Survey MPS 147802
2007 01 17.27693 08 43 37.88 +35 21 41.4 19.8 V 703 – Catalina Sky Survey MPS 257951
2007 01 17.28385 08 43 37.63 +35 21 44.7 20.6 V 703 – Catalina Sky Survey MPS 257951
2007 01 17.29082 08 43 37.27 +35 21 46.4 19.9 V 703 – Catalina Sky Survey MPS 257951
2007 01 17.29774 08 43 36.84 +35 21 48.8 19.9 V 703 – Catalina Sky Survey MPS 257951
2008 03 31.42409 13 26 18.74 +02 13 12.8 21.1 V G96 – Mt. Lemmon Survey MPS 257951
2008 03 31.42808 13 26 18.56 +02 13 14.0 20.3 V G96 – Mt. Lemmon Survey MPS 257951
2008 03 31.43204 13 26 18.38 +02 13 14.0 20.0 V G96 – Mt. Lemmon Survey MPS 257951
2008 03 31.43598 13 26 18.16 +02 13 15.1 20.6 V G96 – Mt. Lemmon Survey MPS 257951
2008 04 07.27461 13 20 56.29 +02 32 06.0 20.6 V G96 – Mt. Lemmon Survey MPS 257951
2008 04 07.28031 13 20 56.00 +02 32 06.9 20.8 V G96 – Mt. Lemmon Survey MPS 257951
2008 04 07.28590 13 20 55.75 +02 32 07.9 20.4 V G96 – Mt. Lemmon Survey MPS 257951
2008 04 07.29148 13 20 55.46 +02 32 08.7 20.4 V G96 – Mt. Lemmon Survey MPS 257951
2008 04 28.19111 13 04 57.79 +03 05 06.9 21.1 V G96 – Mt. Lemmon Survey MPS 257951
2008 04 28.19650 13 04 57.57 +03 05 07.1 20.9 V G96 – Mt. Lemmon Survey MPS 257951
2008 04 28.20199 13 04 57.32 +03 05 07.3 21.2 V G96 – Mt. Lemmon Survey MPS 257951
2008 04 28.20740 13 04 57.10 +03 05 07.6 20.9 V G96 – Mt. Lemmon Survey MPS 257951
2010 09 03.398100 23 03 15.248 -25 11 41.81 20.07 i F51 – Pan-STARRS 1, Haleakala MPS 365551
2010 09 03.409133 23 03 14.693 -25 11 44.03 19.73 i F51 – Pan-STARRS 1, Haleakala MPS 365551
2010 09 03.421372 23 03 14.050 -25 11 46.68 19.89 r F51 – Pan-STARRS 1, Haleakala MPS 365551
2010 09 03.432370 23 03 13.492 -25 11 49.02 20.01 r F51 – Pan-STARRS 1, Haleakala MPS 365551
2010 09 06.460321 23 00 41.807 -25 21 46.20 20.64 g F51 – Pan-STARRS 1, Haleakala MPS 365551
2010 09 06.472347 23 00 41.201 -25 21 48.54 20.62 g F51 – Pan-STARRS 1, Haleakala MPS 365551
2011 10 27.42681 05 09 30.42 +26 10 48.2 19.9 V G96 – Mt. Lemmon Survey MPS 396312
2011 10 27.43377 05 09 30.27 +26 10 50.4 19.9 V G96 – Mt. Lemmon Survey MPS 396312
2011 10 27.44062 05 09 30.16 +26 10 51.7 19.8 V G96 – Mt. Lemmon Survey MPS 396312
2011 10 27.44756 05 09 29.98 +26 10 53.4 20.0 V G96 – Mt. Lemmon Survey MPS 396312
2011 11 17.21703 04 57 07.92 +27 30 48.2 19.6 V 691 – Steward Observatory, Kitt Peak-Spacewatch MPS 399997
2011 11 17.23481 04 57 07.01 +27 30 51.6 20.0 V 691 – Steward Observatory, Kitt Peak-Spacewatch MPS 399997
2011 11 17.25258 04 57 06.11 +27 30 55.2 20.0 V 691 – Steward Observatory, Kitt Peak-Spacewatch MPS 399997
2011 11 25.73144 04 49 25.45 +27 56 55.5 20.2 R D29 – Purple Mountain Observatory, XuYi Station MPS 402373
2011 11 25.74745 04 49 24.39 +27 56 57.8 20.0 R D29 – Purple Mountain Observatory, XuYi Station MPS 402373
2011 11 25.76690 04 49 23.26 +27 57 00.7 19.7 R D29 – Purple Mountain Observatory, XuYi Station MPS 402373
2011 11 29.17920 04 46 03.36 +28 05 53.8   691 – Steward Observatory, Kitt Peak-Spacewatch MPS 402373
2011 11 29.19699 04 46 02.34 +28 05 56.9   691 – Steward Observatory, Kitt Peak-Spacewatch MPS 402373
2011 11 29.21478 04 46 01.20 +28 05 59.3   691 – Steward Observatory, Kitt Peak-Spacewatch MPS 402373
2013 04 03.27707 10 41 21.45 +24 46 26.1 21.3 r I41 – Palomar Mountain--ZTF MPS 462614
2013 04 03.30720 10 41 20.52 +24 46 22.8 21.1 r I41 – Palomar Mountain--ZTF MPS 462614
2013 04 03.34674 10 41 19.32 +24 46 17.6 20.4 r I41 – Palomar Mountain--ZTF MPS 462614
2013 04 14.16223 10 37 12.43 +24 15 28.0 21.3 r I41 – Palomar Mountain--ZTF MPS 464941
2013 04 14.23446 10 37 11.19 +24 15 12.1 21.0 r I41 – Palomar Mountain--ZTF MPS 464941
2013 04 14.26401 10 37 10.73 +24 15 05.5 20.9 r I41 – Palomar Mountain--ZTF MPS 464941
2014 04 26.34459 15 03 20.99 -14 17 48.8 20.6 V W84 – Cerro Tololo-DECam MPS 789579
2014 04 26.34777 15 03 20.84 -14 17 48.7   W84 – Cerro Tololo-DECam MPS 789579
2014 04 26.35096 15 03 20.68 -14 17 48.5   W84 – Cerro Tololo-DECam MPS 789579
2014 04 26.35412 15 03 20.52 -14 17 48.3   W84 – Cerro Tololo-DECam MPS 789579
2014 04 26.35730 15 03 20.37 -14 17 48.1   W84 – Cerro Tololo-DECam MPS 789579
2014 04 30.24334 15 00 11.27 -14 14 24.1 20.5 V W84 – Cerro Tololo-DECam MPS 789579
2014 04 30.27932 15 00 09.45 -14 14 22.1   W84 – Cerro Tololo-DECam MPS 789579
2014 04 30.31465 15 00 07.66 -14 14 20.2   W84 – Cerro Tololo-DECam MPS 789579
2014 05 01.32289 14 59 17.82 -14 13 29.4 20.3 V G96 – Mt. Lemmon Survey MPS 513691
2014 05 01.32797 14 59 17.56 -14 13 28.8 21.0 V G96 – Mt. Lemmon Survey MPS 513691
2014 05 01.33305 14 59 17.31 -14 13 29.2 20.3 V G96 – Mt. Lemmon Survey MPS 513691
2014 05 01.33815 14 59 17.06 -14 13 28.7 19.9 V G96 – Mt. Lemmon Survey MPS 513691
2014 05 09.36720 14 52 34.307 -14 06 13.77 20.4 i F51 – Pan-STARRS 1, Haleakala MPS 515129
2014 05 09.39255 14 52 33.017 -14 06 12.54 20.2 i F51 – Pan-STARRS 1, Haleakala MPS 515129
2014 05 09.40523 14 52 32.374 -14 06 11.87 20.4 i F51 – Pan-STARRS 1, Haleakala MPS 515129
2014 05 21.33852 14 42 54.261 -13 57 19.04 20.8 w F51 – Pan-STARRS 1, Haleakala MPS 516327
2014 05 21.35200 14 42 53.623 -13 57 18.64 20.9 w F51 – Pan-STARRS 1, Haleakala MPS 516327
2014 05 21.36546 14 42 52.989 -13 57 18.13 20.7 w F51 – Pan-STARRS 1, Haleakala MPS 516327
2014 05 27.35296 14 38 30.994 -13 54 43.73 20.9 w F51 – Pan-STARRS 1, Haleakala MPS 517765
2014 05 27.36406 14 38 30.509 -13 54 43.59 20.9 w F51 – Pan-STARRS 1, Haleakala MPS 517765
2014 05 27.37517 14 38 30.024 -13 54 43.34 20.9 w F51 – Pan-STARRS 1, Haleakala MPS 517765
2014 06 05.23006 14 32 57.66 -13 54 27.1 20.7 V G96 – Mt. Lemmon Survey MPS 518747
2014 06 05.24342 14 32 57.19 -13 54 26.7 20.8 V G96 – Mt. Lemmon Survey MPS 518747
2014 06 05.25662 14 32 56.75 -13 54 27.6 21.1 V G96 – Mt. Lemmon Survey MPS 518747
2016 10 03.69602 01 35 19.18 -01 48 58.5 20.0 R D29 – Purple Mountain Observatory, XuYi Station MPS 733988
2016 10 03.71016 01 35 18.47 -01 49 00.0 19.8 R D29 – Purple Mountain Observatory, XuYi Station MPS 733988
2016 10 03.72430 01 35 17.74 -01 49 02.0 20.4 R D29 – Purple Mountain Observatory, XuYi Station MPS 733988
2016 10 05.23235 01 34 05.11 -01 52 13.7 20.3 G G45 – Space Surveillance Telescope, Atom Site MPS 1609348
2016 10 05.27411 01 34 03.05 -01 52 18.7 19.9 G G45 – Space Surveillance Telescope, Atom Site MPS 1609348
2016 10 05.27422 01 34 03.03 -01 52 18.5 20.0 G G45 – Space Surveillance Telescope, Atom Site MPS 1609348
2016 10 05.29347 01 34 02.08 -01 52 23.9 20.1 V 703 – Catalina Sky Survey MPS 733988
2016 10 05.31151 01 34 01.04 -01 52 21.3 20.5 V 703 – Catalina Sky Survey MPS 733988
2016 10 05.31682 01 34 00.89 -01 52 23.1 19.7 G G45 – Space Surveillance Telescope, Atom Site MPS 1609348
2016 10 05.31836 01 34 00.80 -01 52 23.6 19.6 G G45 – Space Surveillance Telescope, Atom Site MPS 1609348
2016 10 05.39322 01 33 57.04 -01 52 33.4 19.8 G G45 – Space Surveillance Telescope, Atom Site MPS 1609348
2016 10 05.43679 01 33 54.84 -01 52 39.2 20.1 G G45 – Space Surveillance Telescope, Atom Site MPS 1609348
2016 10 05.43789 01 33 54.83 -01 52 38.9 20.3 G G45 – Space Surveillance Telescope, Atom Site MPS 1609348
2016 10 05.47572 01 33 52.98 -01 52 42.6 20.0 G G45 – Space Surveillance Telescope, Atom Site MPS 1609348
2016 10 07.28796 01 32 23.87 -01 56 22.3 19.6 V G96 – Mt. Lemmon Survey MPS 733988
